Regional Weather Roundup
Issued by NWS

Home | Current Version | Previous Version | Text Only | Print | Product List | Glossary Off
Versions: 1 2 3 4 5 6 7 8 9 10 11 12 13 14 15 16 17 18 19 20 21 22 23 24 25 26 27 28 29 30 31 32 33 34 35 36 37 38 39 40 41 42 43 44 45 46 47 48 49 50

000
ASUS45 KSLC 230510
RWRUT

UTAH REGIONAL WEATHER ROUNDUP
NATIONAL WEATHER SERVICE SALT LAKE CITY UT
1100 PM MDT FRI MAY 22 2015

UTZ001>011-023>025-230600-

NORTHERN UTAH

CITY           SKY/WX    TMP DP  RH WIND       PRES   REMARKS
BRIGHAM CITY   CLOUDY    59  44  56 NE7       29.91R
HILL AFB       CLOUDY    54  43  66 E9        29.91S
LOGAN          LGT RAIN  52  48  86 E6        29.92S
OGDEN          CLOUDY    56  43  61 S7        29.90S
PROVO AIRPORT  MOCLDY    54  43  66 NW3       29.92R
SALT LAKE CITY CLOUDY    56  43  61 E7        29.89F
VERNAL         MOCLDY    49  43  80 S6        29.99R
WENDOVER       CLOUDY    55  45  67 N3        29.90S
HEBER CITY     MOCLDY    43  37  81 CALM      29.95S
WEST JORDAN    MOCLDY    52  43  71 S3        29.92S

$$

UTZ012>022-026-027-230600-

SOUTHERN/CENTRAL UTAH

CITY           SKY/WX    TMP DP  RH WIND       PRES   REMARKS
BLANDING       PTCLDY    50  29  44 SW6       30.06R
BRYCE CANYON   CLOUDY    38  35  89 S3        30.01S
CEDAR CITY     CLOUDY    45  39  79 S5        29.97S
DELTA          CLOUDY    48  40  74 SW10      29.95F
HANKSVILLE     MOCLDY    55  32  41 NW7       29.93R
MILFORD        CLOUDY    45  41  86 SW9       29.95R
MOAB/CYNLANDS  CLEAR     56  40  55 W6        29.90R
PRICE          CLOUDY    51  36  56 NE8       29.96R
ST GEORGE      MOCLDY    57  39  51 SE9       29.96S
KANAB          CLOUDY    43  41  93 S3        30.04S

$$

REGIONAL REPORTS     COLORADO/ARIZONA

CITY           SKY/WX    TMP DP  RH WIND       PRES   REMARKS
CRAIG, CO      LGT RAIN  47  41  80 SW7G20    30.05R
GRAND JUNCTION CLOUDY    51  45  79 CALM      29.97R
RIFLE          CLOUDY    48  42  80 S7        30.02R
MONTROSE       MOCLDY    51  38  60 SE13      30.00R
CORTEZ         PTCLDY    53  32  44 VRB7G17   30.00R
PAGE, AZ       MOCLDY    54  36  50 NW3       29.96R
GRAND CANYON   MOCLDY    34  32  92 CALM      30.05R
KINGMAN        PTCLDY    52  40  63 E7        29.98R
FLAGSTAFF      PTCLDY    37  32  82 W7        30.05R WCI  32

$$

REGIONAL REPORTS    NEVADA/IDAHO/WYOMING

CITY           SKY/WX    TMP DP  RH WIND       PRES   REMARKS
LAS VEGAS, NV  PTCLDY    65  39  38 S12       29.86R
ELY            LGT RAIN  43  40  89 NE3       30.00R
ELKO           CLOUDY    49  43  80 SW5       29.96R
POCATELLO, ID  CLOUDY    56  50  80 S6        29.91S
BURLEY         MOCLDY    53  48  83 CALM      29.88S
EVANSTON, WY   MOCLDY    39  38  96 CALM      29.99F
ROCK SPRINGS   MOCLDY    41  40  96 S12       29.99R
KEMMERER       CLOUDY    41  37  87 W3        30.01S

$$


USA.gov is the U.S. government's official web portal to all federal, state and local government web resources and services.